INTELSAT 30 (IS-30) (40271 NORAD) Tracking and Keplerian Element Data

This shows tracking and keplerian element data for the satellite.

Feedback or suggestion? Click here.




ElementValue
Catalog40271
NameINTELSAT 30 (IS-30)
Epoch Orbit1645
Epoch Day113.59550031
Epoch Year2019
RAAN258.6616
Inclination0.0167
Eccentricity0.0001688
Argument of Perigee194.2046
Mean Anonmoly237.8029
Mean Motion1.00271075
Decay Rate-1.66E-06
L11 40271U 14062A 19113.59550031 -.00000166 00000-0 00000-0 0 9994
L22 40271 0.0167 258.6616 0001688 194.2046 237.8029 1.00271075 16453

Live tracking and technical data element details for INTELSAT 30 (IS-30) (NORAD 40271). INTELSAT 30 (IS-30) can be tracked NOW for your location showing map with azimuth and elevation plus other details from your city location.

Track the satellite on the map from your city or location and see movement details for azimuth, elevation, latitude, longitude, range, height, and movement on the map or in text.







IsCatalogInMostPopularTable: catalog: 40271, numindb: 237
Update: records affected: 1



GetName: 40271 INTELSAT 30 (IS-30)

Hit Count: updated at: Thu, 25 Apr 2019 19:44:00 GMT